This demonstration page uses our WeatherBlox Daily Observations layout. Learn more.

Left ArrowRight Arrow

39.51506, -84.39828

Hourly Observations for May 22, 2021

Temp ( °F °C ) Dew Point ( °F °C ) Humidity (%) Winds ( mph kmh ) Pressure ( in mb ) Visibility ( mi km ) Precip ( " mm )
12:15 am 00:15 Clear 62 16.7 60 15.5 93 93 Calm 30.40 1030 10 16 0.00 0.00
12:35 am 00:35 Clear 62 16.4 60 15.4 94 94 NW 3 6 30.40 1030 10 16 0.00 0.00
12:55 am 00:55 Clear 59 15.2 59 15 99 99 Calm 30.41 1030 10 16 0.00 0.00
1:15 am 01:15 Clear 61 16.1 60 15.4 96 96 N 3 6 30.39 1029 10 16 0.00 0.00
1:35 am 01:35 Clear 60 15.4 60 15.3 99 99 NNE 3 6 30.40 1029 10 16 0.00 0.00
1:55 am 01:55 Clear 59 15.1 59 15 99 99 Calm 30.40 1029 10 16 0.00 0.00
2:15 am 02:15 Clear 59 15 59 15 100 100 Calm 30.39 1029 10 16 0.00 0.00
2:35 am 02:35 Clear 59 15 N/A N/A Calm 30.39 1029 10 16 0.00 0.00
2:55 am 02:55 Clear 59 15 N/A N/A Calm 30.39 1029 10 16 0.00 0.00
3:15 am 03:15 Clear 57 14 N/A N/A Calm 30.39 1029 10 16 0.00 0.00
3:35 am 03:35 Clear 57 14 N/A N/A Calm 30.39 1029 10 16 0.00 0.00
3:55 am 03:55 Clear 57 14 N/A N/A Calm 30.39 1029 10 16 0.00 0.00
4:15 am 04:15 Clear 57 14 N/A N/A Calm 30.40 1029 10 16 0.00 0.00
4:35 am 04:35 Clear 55 13 N/A N/A N 3 6 30.40 1030 10 16 0.00 0.00
4:55 am 04:55 Clear 57 14 N/A N/A Calm 30.40 1029 10 16 0.00 0.00
5:15 am 05:15 Clear 55 13 N/A N/A Calm 30.40 1030 10 16 0.00 0.00
5:35 am 05:35 Clear 55 13 N/A N/A Calm 30.41 1030 7 11 0.00 0.00
5:55 am 05:55 Clear with Mist and Fog 55 13 N/A N/A Calm 30.41 1030 2 3 0.00 0.00
6:15 am 06:15 Hazy 55 13 N/A N/A Calm 30.42 1030 5 8 0.00 0.00
6:35 am 06:35 Hazy 55 13 N/A N/A Calm 30.42 1030 5 8 0.00 0.00
6:55 am 06:55 Hazy 55 13 N/A N/A N 3 6 30.43 1031 5 8 0.00 0.00
7:15 am 07:15 Sunny 55 13 N/A N/A Calm 30.43 1031 7 11 0.00 0.00
7:35 am 07:35 Sunny 57 14 N/A N/A Calm 30.44 1031 7 11 0.00 0.00
7:55 am 07:55 Hazy 59 15 N/A N/A Calm 30.45 1031 7 11 0.00 0.00
8:15 am 08:15 Hazy 61 16 N/A N/A Calm 30.44 1031 7 11 0.00 0.00
8:35 am 08:35 Sunny 62 16.8 62 16.6 99 99 Calm 30.44 1031 7 11 0.00 0.00
8:55 am 08:55 Sunny 64 17.5 62 16.6 95 95 Calm 30.45 1031 10 16 0.00 0.00
9:15 am 09:15 Sunny 65 18.5 62 16.9 90 90 Calm 30.45 1031 10 16 0.00 0.00
9:35 am 09:35 Sunny with Mist and Fog 67 19.6 63 17 85 85 Calm 30.45 1031 5 8 0.00 0.00
9:55 am 09:55 Sunny 70 21.1 62 16.7 76 76 Calm 30.43 1031 7 11 0.00 0.00
10:15 am 10:15 Sunny 72 22.3 62 16.6 70 70 Calm 30.43 1030 10 16 0.00 0.00
10:35 am 10:35 Sunny 74 23.3 62 16.6 66 66 Calm 30.42 1030 10 16 0.00 0.00
10:55 am 10:55 Sunny 75 24.1 63 17 65 65 Calm 30.41 1030 10 16 0.00 0.00
11:15 am 11:15 Sunny 76 24.6 61 16.1 59 59 Calm 30.40 1030 10 16 0.00 0.00
11:35 am 11:35 Sunny 77 24.8 61 16.3 59 59 Calm 30.40 1030 10 16 0.00 0.00
11:55 am 11:55 Sunny 78 25.7 62 16.9 58 58 NNE 3 6 30.40 1029 10 16 0.00 0.00
12:15 pm 12:15 Sunny 80 26.4 61 15.9 53 53 SW 3 6 30.39 1029 10 16 0.00 0.00
12:35 pm 12:35 Sunny 80 26.7 62 16.9 55 55 SSW 5 7 30.39 1029 10 16 0.00 0.00
12:55 pm 12:55 Sunny 81 27.2 63 17.3 55 55 SSW 7 11 30.38 1029 10 16 0.00 0.00
1:15 pm 13:15 Sunny 82 27.6 60 15.3 47 47 W 10 17 30.38 1029 10 16 0.00 0.00
1:35 pm 13:35 Sunny 81 27 59 15 48 48 W 8 13 30.37 1028 10 16 0.00 0.00
1:55 pm 13:55 Sunny 81 27.1 58 14.6 46 46 WNW 8 13 30.37 1028 10 16 0.00 0.00
2:15 pm 14:15 Sunny 82 27.6 58 14.6 45 45 W 12 19 30.36 1028 10 16 0.00 0.00
2:35 pm 14:35 Sunny 83 28.2 58 14.4 43 43 WNW 12 19 30.35 1028 10 16 0.00 0.00
2:55 pm 14:55 Sunny 82 28 58 14.2 43 43 NW 7 11 30.34 1027 10 16 0.00 0.00
3:15 pm 15:15 Sunny 83 28.3 59 14.8 44 44 WNW 10 17 30.33 1027 10 16 0.00 0.00
3:35 pm 15:35 Sunny 82 27.5 58 14.4 45 45 W 8 13 30.32 1027 10 16 0.00 0.00
3:55 pm 15:55 Sunny 81 27.2 58 14.5 46 46 W 6 9 30.32 1027 10 16 0.00 0.00
4:15 pm 16:15 Sunny 81 27.1 60 15.4 49 49 W 8 13 30.31 1026 10 16 0.00 0.00
4:35 pm 16:35 Sunny 83 28.3 59 14.9 44 44 W 9 15 30.30 1026 10 16 0.00 0.00
4:55 pm 16:55 Sunny 83 28.3 59 15 44 44 W 10 17 30.29 1026 10 16 0.00 0.00
5:15 pm 17:15 Partly Cloudy 83 28.1 59 15.2 45 45 W 8 13 30.29 1026 10 16 0.00 0.00
5:35 pm 17:35 Sunny 82 27.8 60 15.3 47 47 W 7 11 30.29 1026 10 16 0.00 0.00
5:55 pm 17:55 Sunny 82 27.5 58 14.7 46 46 WNW 6 9 30.28 1025 10 16 0.00 0.00
6:15 pm 18:15 Sunny 83 28.1 58 14.6 44 44 W 7 11 30.28 1025 10 16 0.00 0.00
6:35 pm 18:35 Sunny 82 28 58 14.6 44 44 W 8 13 30.27 1025 10 16 0.00 0.00
6:55 pm 18:55 Sunny 82 27.8 59 15.1 46 46 W 8 13 30.26 1025 10 16 0.00 0.00
7:15 pm 19:15 Sunny 81 27.4 58 14.4 45 45 W 7 11 30.26 1025 10 16 0.00 0.00
7:35 pm 19:35 Sunny 81 27 58 14.5 46 46 W 8 13 30.25 1024 10 16 0.00 0.00
7:55 pm 19:55 Sunny 79 25.9 60 15.6 53 53 W 7 11 30.25 1024 10 16 0.00 0.00
8:15 pm 20:15 Sunny 77 25.1 60 15.5 55 55 W 6 9 30.25 1024 10 16 0.00 0.00
8:35 pm 20:35 Sunny 75 23.8 61 16.2 63 63 W 5 7 30.26 1025 10 16 0.00 0.00
8:55 pm 20:55 Clear 70 21.1 63 17.3 79 79 WNW 3 6 30.26 1025 10 16 0.00 0.00
9:15 pm 21:15 Clear 68 19.9 63 17.3 85 85 Calm 30.26 1025 10 16 0.00 0.00
9:35 pm 21:35 Clear 67 19.7 63 17.1 85 85 Calm 30.27 1025 10 16 0.00 0.00
9:55 pm 21:55 Clear 67 19.5 63 17.4 88 88 Calm 30.27 1025 10 16 0.00 0.00
10:15 pm 22:15 Clear 67 19.4 63 17.1 87 87 Calm 30.28 1025 10 16 0.00 0.00
10:35 pm 22:35 Clear 67 19.5 64 17.5 88 88 Calm 30.28 1025 10 16 0.00 0.00
10:55 pm 22:55 Clear 67 19.3 64 17.7 91 91 Calm 30.27 1025 10 16 0.00 0.00
11:15 pm 23:15 Clear 66 19 63 17.4 91 91 Calm 30.27 1025 10 16 0.00 0.00
11:35 pm 23:35 Clear 66 19 63 17.4 91 91 Calm 30.27 1025 10 16 0.00 0.00
11:55 pm 23:55 Clear 65 18.5 63 17.3 93 93 Calm 30.27 1025 10 16 0.00 0.00

Powered by AerisWeather